Location: Newark
(46.0333°N, 5.8167°E)
Time: 00:46:02
(UTC+00:00)

Envisat - Pass Details

Date: 26 September 2019
Orbit: 764 x 766 km, 98.1° (Epoch: 22 October)

Event Time Altitude Azimuth Distance (km) Brightness Sun altitude
Rises 19:00:42 0° 210° (SSW) 3,221 6.4 -16.9°
Reaches altitude 10° 19:03:47 10° 229° (SW) 2,301 5.9 -17.4°
Maximum altitude 19:07:05 17° 270° (W) 1,852 5.9 -17.9°
Drops below altitude 10° 19:10:24 10° 311° (NW) 2,312 6.5 -18.5°
Sets 19:13:31 0° 331° (NNW) 3,243 7.0 -19.0°
